User: anonymous   Login
Location: Songkhla
(7.2000°N, 100.6000°E)
Time: 03:41:08
(UTC+07:00)
Language:

AO-73 - Orbit

View from above orbital plane
View from above orbital plane
View from above satellite
View from above satellite

Ground track
Ground track

The orbit data is extracted from the following two-line orbital elements,

1 39444U 13066AE  21204.54549206  .00000618  00000-0  81102-4 0  9995
2 39444  97.5848 189.3765 0058590  34.3165 326.1812 14.82463203412783
Epoch (UTC): 23 July 2021 13:05:30
Eccentricity: 0.0058590
inclination: 97.5848°
perigee height: 580 km
apogee height: 662 km
right ascension of ascending node: 189.3765°
argument of perigee: 34.3165°
revolutions per day: 14.82463203
mean anomaly at epoch: 326.1812°
orbit number at epoch: 41278

The dashed part of the orbit path shows where the satellite is in the earth's shadow,  

DLR